COSMOS 2457 (733)

Last updated on Mon Sep 07 2026 00:03:21 GMT+0000 (Coordinated Universal Time)

1 36112U 09070B 26249.10623056 .00000036 00000+0 00000+0 0 9992 2 36112 65.0483 68.0567 0005748 129.4836 52.1383 2.13100949130151
UTC large
Height (km)
Speed (km/s)
/
Latitude / Longitude
Inclination (degrees)
Orbital Period (minutes)
Azimuth
Elevation
Range (km)
Doppler Factor

Next 0 passes for location: London (51.5072 / 0.1276)

No passes found over London.
COSMOS 2457 (733)